CSN3805 ZGGG-ZSAM

Flight info

Callsign CSN3805
Flight time 0h 51m
Altitude 26600
Route LMN9 LMN G471 XEBUL DCT NUVGA DCT VETIB W155 TEBON TEBON8X
Aircraft A20N/M-SDE2E3FGHIRWXY/LB1

Departure

Time 2026-04-29 13:18
Airport Guangzhou Baiyun International Airport (ZGGG)

Arrival

Time 2026-04-29 14:09
Airport Xiamen Gaoqi International Airport (ZSAM)
Time Latitude Longitude Altitude Speed Heading
2026-04-29 12:49 23.40109 113.30706 51 ft 0 kts 292°
2026-04-29 13:05 23.40104 113.30718 51 ft 2 kts 291°
2026-04-29 13:05 23.40099 113.30733 51 ft 2 kts 292°
2026-04-29 13:05 23.40094 113.30745 51 ft 0 kts 292°
2026-04-29 13:05 23.40090 113.30759 51 ft 2 kts 275°
2026-04-29 13:06 23.40090 113.30776 51 ft 2 kts 259°
2026-04-29 13:06 23.40095 113.30791 51 ft 2 kts 242°
2026-04-29 13:06 23.40103 113.30804 51 ft 2 kts 225°
2026-04-29 13:06 23.40115 113.30815 51 ft 2 kts 208°
2026-04-29 13:07 23.40126 113.30820 51 ft 0 kts 195°
2026-04-29 13:07 23.40132 113.30821 51 ft 0 kts 192°
2026-04-29 13:08 23.40129 113.30821 51 ft 1 kts 192°
2026-04-29 13:09 23.40112 113.30817 51 ft 3 kts 192°
2026-04-29 13:09 23.40079 113.30808 51 ft 5 kts 192°
2026-04-29 13:09 23.40033 113.30798 51 ft 7 kts 192°
2026-04-29 13:09 23.39988 113.30787 51 ft 4 kts 192°
2026-04-29 13:10 23.39952 113.30776 51 ft 6 kts 197°
2026-04-29 13:10 23.39902 113.30762 51 ft 8 kts 194°
2026-04-29 13:10 23.39840 113.30744 51 ft 10 kts 194°
2026-04-29 13:10 23.39766 113.30724 51 ft 11 kts 194°
2026-04-29 13:11 23.39682 113.30701 51 ft 13 kts 194°
2026-04-29 13:11 23.39588 113.30676 51 ft 14 kts 193°
2026-04-29 13:11 23.39489 113.30650 51 ft 15 kts 193°
2026-04-29 13:11 23.39383 113.30622 51 ft 16 kts 193°
2026-04-29 13:12 23.39269 113.30593 51 ft 16 kts 195°
2026-04-29 13:12 23.39154 113.30557 51 ft 17 kts 194°
2026-04-29 13:12 23.39035 113.30527 51 ft 18 kts 196°
2026-04-29 13:12 23.38910 113.30493 51 ft 18 kts 193°
2026-04-29 13:13 23.38782 113.30461 51 ft 19 kts 192°
2026-04-29 13:13 23.38653 113.30425 51 ft 19 kts 194°
2026-04-29 13:13 23.38522 113.30389 51 ft 19 kts 194°
2026-04-29 13:13 23.38387 113.30352 51 ft 19 kts 193°
2026-04-29 13:14 23.38252 113.30318 51 ft 20 kts 192°
2026-04-29 13:14 23.38111 113.30276 51 ft 20 kts 194°
2026-04-29 13:14 23.37969 113.30238 51 ft 20 kts 193°
2026-04-29 13:14 23.37827 113.30202 51 ft 20 kts 194°
2026-04-29 13:15 23.37713 113.30226 51 ft 15 kts 141°
2026-04-29 13:15 23.37629 113.30308 51 ft 15 kts 116°
2026-04-29 13:15 23.37601 113.30421 51 ft 6 kts 103°
2026-04-29 13:15 23.37601 113.30424 51 ft 0 kts 102°
2026-04-29 13:16 23.37600 113.30425 51 ft 0 kts 102°
2026-04-29 13:16 23.37598 113.30437 51 ft 2 kts 102°
2026-04-29 13:17 23.37594 113.30459 51 ft 3 kts 101°
2026-04-29 13:17 23.37588 113.30491 51 ft 4 kts 98°
2026-04-29 13:17 23.37595 113.30531 51 ft 5 kts 55°
2026-04-29 13:17 23.37637 113.30552 51 ft 6 kts 15°
2026-04-29 13:18 23.37687 113.30567 51 ft 8 kts 15°
2026-04-29 13:18 23.37946 113.30640 51 ft 78 kts 14°
2026-04-29 13:18 23.38738 113.30850 69 ft 143 kts 14°
2026-04-29 13:18 23.39782 113.31087 732 ft 145 kts 13°
2026-04-29 13:19 23.40739 113.31344 1576 ft 141 kts 15°
2026-04-29 13:19 23.41668 113.31617 2268 ft 146 kts 17°
2026-04-29 13:19 23.42720 113.31942 2802 ft 162 kts 17°
2026-04-29 13:19 23.43875 113.32296 3294 ft 178 kts 17°
2026-04-29 13:20 23.45153 113.32686 3773 ft 197 kts 16°
2026-04-29 13:20 23.46511 113.33096 4351 ft 213 kts 15°
2026-04-29 13:20 23.48061 113.33561 4833 ft 238 kts 14°
2026-04-29 13:20 23.49703 113.34051 5495 ft 254 kts 14°
2026-04-29 13:21 23.51449 113.34573 6344 ft 264 kts 13°
2026-04-29 13:21 23.53267 113.35117 7209 ft 272 kts 12°
2026-04-29 13:21 23.55101 113.35663 8085 ft 278 kts 10°
2026-04-29 13:21 23.57029 113.36106 8953 ft 284 kts
2026-04-29 13:22 23.59001 113.36480 9794 ft 290 kts
2026-04-29 13:22 23.61036 113.36922 10470 ft 306 kts 14°
2026-04-29 13:22 23.62873 113.38236 11430 ft 315 kts 47°
2026-04-29 13:22 23.63932 113.40340 12280 ft 322 kts 73°
2026-04-29 13:23 23.64453 113.42796 12769 ft 339 kts 78°
2026-04-29 13:23 23.64918 113.45412 13201 ft 357 kts 78°
2026-04-29 13:23 23.65424 113.48134 13604 ft 374 kts 77°
2026-04-29 13:23 23.65983 113.50932 14192 ft 384 kts 77°
2026-04-29 13:24 23.66581 113.53815 14925 ft 389 kts 76°
2026-04-29 13:24 23.67190 113.56715 15634 ft 393 kts 77°
2026-04-29 13:24 23.67628 113.59671 16329 ft 396 kts 83°
2026-04-29 13:24 23.67763 113.62676 16984 ft 401 kts 90°
2026-04-29 13:25 23.67677 113.65742 17637 ft 404 kts 93°
2026-04-29 13:25 23.67394 113.72035 18839 ft 413 kts 93°
2026-04-29 13:25 23.67252 113.75235 19430 ft 417 kts 93°
2026-04-29 13:26 23.67116 113.78441 20004 ft 421 kts 93°
2026-04-29 13:26 23.66984 113.81625 20564 ft 424 kts 93°
2026-04-29 13:26 23.66849 113.84881 21110 ft 428 kts 93°
2026-04-29 13:26 23.66715 113.88158 21649 ft 432 kts 93°
2026-04-29 13:27 23.66581 113.91436 22156 ft 436 kts 93°
2026-04-29 13:27 23.66444 113.94770 22658 ft 440 kts 93°
2026-04-29 13:27 23.66308 113.98103 23270 ft 440 kts 93°
2026-04-29 13:27 23.66171 114.01459 23993 ft 438 kts 93°
2026-04-29 13:28 23.66032 114.04787 24717 ft 436 kts 94°
2026-04-29 13:28 23.65895 114.08048 25385 ft 435 kts 94°
2026-04-29 13:28 23.65755 114.11363 25998 ft 436 kts 94°
2026-04-29 13:28 23.65614 114.14675 26540 ft 438 kts 94°
2026-04-29 13:29 23.65472 114.17980 26984 ft 442 kts 94°
2026-04-29 13:29 23.65328 114.21343 27147 ft 444 kts 94°
2026-04-29 13:29 23.65182 114.24702 27150 ft 445 kts 94°
2026-04-29 13:29 23.65044 114.28107 27151 ft 446 kts 92°
2026-04-29 13:30 23.65422 114.31427 27128 ft 445 kts 70°
2026-04-29 13:30 23.66884 114.34411 27140 ft 440 kts 47°
2026-04-29 13:30 23.69158 114.36628 27156 ft 436 kts 32°
2026-04-29 13:30 23.71645 114.38547 27148 ft 437 kts 31°
2026-04-29 13:31 23.74174 114.40482 27144 ft 437 kts 31°
2026-04-29 13:31 23.76642 114.42415 27147 ft 437 kts 32°
2026-04-29 13:31 23.79168 114.44432 27146 ft 438 kts 32°
2026-04-29 13:31 23.81619 114.46419 27151 ft 438 kts 32°
2026-04-29 13:32 23.84132 114.48470 27153 ft 438 kts 33°
2026-04-29 13:32 23.86587 114.50483 27155 ft 438 kts 33°
2026-04-29 13:32 23.89101 114.52549 27155 ft 438 kts 33°
2026-04-29 13:32 23.91598 114.54604 27156 ft 438 kts 33°
2026-04-29 13:33 23.94099 114.56664 27162 ft 438 kts 33°
2026-04-29 13:33 23.96540 114.58675 27162 ft 438 kts 33°
2026-04-29 13:33 23.98998 114.60701 27162 ft 438 kts 33°
2026-04-29 13:33 24.01407 114.62689 27164 ft 438 kts 33°
2026-04-29 13:34 24.03861 114.64716 27168 ft 439 kts 33°
2026-04-29 13:34 24.06296 114.66725 27168 ft 439 kts 33°
2026-04-29 13:34 24.08808 114.68800 27168 ft 439 kts 33°
2026-04-29 13:34 24.11265 114.70834 27171 ft 438 kts 33°
2026-04-29 13:35 24.13699 114.72847 27168 ft 439 kts 33°
2026-04-29 13:35 24.16143 114.74871 27168 ft 439 kts 33°
2026-04-29 13:35 24.18585 114.76896 27172 ft 438 kts 33°
2026-04-29 13:35 24.21037 114.78928 27175 ft 439 kts 33°
2026-04-29 13:36 24.23475 114.80947 27180 ft 439 kts 33°
2026-04-29 13:36 24.25862 114.83089 27164 ft 443 kts 44°
2026-04-29 13:36 24.27625 114.86018 27165 ft 450 kts 68°
2026-04-29 13:36 24.28287 114.89420 27171 ft 450 kts 91°
2026-04-29 13:37 24.28074 114.92839 27185 ft 448 kts 99°
2026-04-29 13:37 24.27661 114.96228 27176 ft 447 kts 100°
2026-04-29 13:37 24.27251 114.99584 27175 ft 446 kts 99°
2026-04-29 13:37 24.26879 115.02980 27180 ft 448 kts 99°
2026-04-29 13:38 24.26542 115.06381 27178 ft 447 kts 98°
2026-04-29 13:38 24.26231 115.09746 27176 ft 448 kts 97°
2026-04-29 13:38 24.25930 115.13148 27173 ft 447 kts 97°
2026-04-29 13:38 24.25635 115.16541 27178 ft 447 kts 97°
2026-04-29 13:39 24.25343 115.19900 27174 ft 447 kts 97°
2026-04-29 13:39 24.25049 115.23283 27172 ft 446 kts 97°
2026-04-29 13:39 24.24753 115.26687 27176 ft 447 kts 97°
2026-04-29 13:39 24.24455 115.30062 27177 ft 446 kts 97°
2026-04-29 13:40 24.24156 115.33471 27128 ft 447 kts 97°
2026-04-29 13:40 24.23860 115.36816 26885 ft 445 kts 97°
2026-04-29 13:40 24.23562 115.40201 26635 ft 443 kts 97°
2026-04-29 13:40 24.23267 115.43547 26388 ft 441 kts 97°
2026-04-29 13:41 24.22998 115.46864 26141 ft 438 kts 96°
2026-04-29 13:41 24.22766 115.50191 25893 ft 436 kts 96°
2026-04-29 13:41 24.22543 115.53523 25644 ft 437 kts 95°
2026-04-29 13:41 24.22319 115.56828 25398 ft 436 kts 95°
2026-04-29 13:42 24.22092 115.60140 25151 ft 437 kts 95°
2026-04-29 13:42 24.21864 115.63422 24907 ft 438 kts 95°
2026-04-29 13:42 24.21631 115.66756 24656 ft 437 kts 95°
2026-04-29 13:42 24.21396 115.70094 24407 ft 437 kts 96°
2026-04-29 13:43 24.21161 115.73406 24160 ft 437 kts 96°
2026-04-29 13:43 24.20926 115.76714 23912 ft 438 kts 96°
2026-04-29 13:43 24.20687 115.80048 23671 ft 437 kts 96°
2026-04-29 13:43 24.20451 115.83347 23438 ft 438 kts 95°
2026-04-29 13:44 24.20210 115.86687 23201 ft 438 kts 95°
2026-04-29 13:44 24.19969 115.90029 22969 ft 439 kts 95°
2026-04-29 13:44 24.19728 115.93367 22732 ft 439 kts 95°
2026-04-29 13:44 24.19489 115.96662 22493 ft 437 kts 95°
2026-04-29 13:45 24.19246 115.99996 22260 ft 435 kts 95°
2026-04-29 13:45 24.19008 116.03268 22036 ft 433 kts 95°
2026-04-29 13:45 24.18768 116.06557 21813 ft 431 kts 96°
2026-04-29 13:45 24.18527 116.09840 21585 ft 430 kts 95°
2026-04-29 13:46 24.18284 116.13125 21355 ft 429 kts 95°
2026-04-29 13:46 24.18043 116.16393 21127 ft 426 kts 96°
2026-04-29 13:46 24.17802 116.19630 20903 ft 425 kts 95°
2026-04-29 13:46 24.17562 116.22864 20678 ft 423 kts 95°
2026-04-29 13:47 24.17325 116.26041 20453 ft 421 kts 95°
2026-04-29 13:47 24.17085 116.29242 20223 ft 420 kts 95°
2026-04-29 13:47 24.16845 116.32426 19994 ft 418 kts 95°
2026-04-29 13:47 24.16606 116.35605 19769 ft 416 kts 95°
2026-04-29 13:48 24.16371 116.38719 19543 ft 415 kts 95°
2026-04-29 13:48 24.16133 116.41877 19314 ft 414 kts 95°
2026-04-29 13:48 24.15943 116.44999 19090 ft 412 kts 93°
2026-04-29 13:48 24.15812 116.48140 18862 ft 410 kts 93°
2026-04-29 13:49 24.15696 116.51233 18635 ft 409 kts 93°
2026-04-29 13:49 24.15579 116.54334 18408 ft 406 kts 93°
2026-04-29 13:49 24.15459 116.57416 18180 ft 405 kts 93°
2026-04-29 13:49 24.15336 116.60506 17953 ft 403 kts 93°
2026-04-29 13:50 24.15216 116.63545 17720 ft 402 kts 93°
2026-04-29 13:50 24.15093 116.66617 17486 ft 401 kts 94°
2026-04-29 13:50 24.14966 116.69697 17259 ft 400 kts 93°
2026-04-29 13:50 24.14842 116.72709 17031 ft 398 kts 94°
2026-04-29 13:51 24.14717 116.75739 16804 ft 397 kts 93°
2026-04-29 13:51 24.14593 116.78744 16578 ft 395 kts 93°
2026-04-29 13:51 24.14466 116.81783 16347 ft 393 kts 94°
2026-04-29 13:51 24.14343 116.84766 16116 ft 392 kts 94°
2026-04-29 13:52 24.14269 116.87771 15886 ft 390 kts 91°
2026-04-29 13:52 24.14248 116.90779 15650 ft 389 kts 91°
2026-04-29 13:52 24.14234 116.93877 15406 ft 389 kts 91°
2026-04-29 13:52 24.14217 116.96950 15164 ft 388 kts 91°
2026-04-29 13:53 24.14201 116.99927 14912 ft 386 kts 91°
2026-04-29 13:53 24.14182 117.03012 14675 ft 384 kts 91°
2026-04-29 13:53 24.14165 117.06001 14428 ft 382 kts 91°
2026-04-29 13:53 24.14146 117.08875 14195 ft 381 kts 91°
2026-04-29 13:54 24.14125 117.11841 13953 ft 379 kts 92°
2026-04-29 13:54 24.14101 117.14922 13696 ft 378 kts 91°
2026-04-29 13:54 24.14078 117.18086 13434 ft 377 kts 92°
2026-04-29 13:54 24.14053 117.21107 13184 ft 377 kts 91°
2026-04-29 13:55 24.14033 117.24004 12941 ft 375 kts 91°
2026-04-29 13:55 24.14012 117.26852 12691 ft 374 kts 91°
2026-04-29 13:55 24.13988 117.29709 12424 ft 373 kts 91°
2026-04-29 13:55 24.13966 117.32538 12063 ft 371 kts 91°
2026-04-29 13:56 24.13942 117.35398 11634 ft 369 kts 91°
2026-04-29 13:56 24.13917 117.38219 11179 ft 368 kts 91°
2026-04-29 13:56 24.13891 117.41063 10853 ft 360 kts 91°
2026-04-29 13:56 24.13867 117.43805 10698 ft 348 kts 91°
2026-04-29 13:57 24.13841 117.46549 10446 ft 339 kts 91°
2026-04-29 13:57 24.13933 117.49285 10169 ft 331 kts 78°
2026-04-29 13:57 24.14873 117.51605 9909 ft 320 kts 50°
2026-04-29 13:57 24.16334 117.53400 9669 ft 311 kts 43°
2026-04-29 13:58 24.17879 117.55151 9412 ft 305 kts 43°
2026-04-29 13:58 24.19377 117.56855 9129 ft 300 kts 43°
2026-04-29 13:58 24.20829 117.58538 8843 ft 296 kts 44°
2026-04-29 13:58 24.22253 117.60214 8556 ft 292 kts 44°
2026-04-29 13:59 24.23631 117.61850 8281 ft 288 kts 45°
2026-04-29 13:59 24.25003 117.63490 8003 ft 283 kts 45°
2026-04-29 13:59 24.26317 117.65063 7732 ft 279 kts 45°
2026-04-29 13:59 24.27626 117.66632 7464 ft 275 kts 46°
2026-04-29 14:00 24.28927 117.68192 7194 ft 271 kts 46°
2026-04-29 14:00 24.30209 117.69731 6921 ft 266 kts 46°
2026-04-29 14:00 24.31486 117.71262 6656 ft 262 kts 46°
2026-04-29 14:00 24.32728 117.72758 6398 ft 258 kts 47°
2026-04-29 14:01 24.33983 117.74266 6135 ft 254 kts 47°
2026-04-29 14:01 24.35193 117.75723 5884 ft 249 kts 47°
2026-04-29 14:01 24.36382 117.77155 5643 ft 244 kts 47°
2026-04-29 14:01 24.37534 117.78538 5417 ft 238 kts 47°
2026-04-29 14:02 24.38655 117.79884 5203 ft 233 kts 47°
2026-04-29 14:02 24.39676 117.81345 5025 ft 225 kts 66°
2026-04-29 14:02 24.40028 117.83056 4747 ft 223 kts 85°
2026-04-29 14:02 24.40133 117.84831 4434 ft 222 kts 87°
2026-04-29 14:03 24.40228 117.86704 4114 ft 221 kts 86°
2026-04-29 14:03 24.40338 117.88484 3826 ft 220 kts 85°
2026-04-29 14:03 24.40455 117.90198 3551 ft 218 kts 84°
2026-04-29 14:03 24.40582 117.91944 3260 ft 216 kts 84°
2026-04-29 14:04 24.40840 117.93682 2935 ft 215 kts 65°
2026-04-29 14:04 24.41633 117.95046 2899 ft 200 kts 52°
2026-04-29 14:04 24.42510 117.96194 2893 ft 187 kts 50°
2026-04-29 14:04 24.43315 117.97234 2980 ft 167 kts 50°
2026-04-29 14:05 24.44001 117.98153 2964 ft 144 kts 51°
2026-04-29 14:05 24.44622 117.99008 2843 ft 133 kts 52°
2026-04-29 14:05 24.45188 117.99801 2666 ft 131 kts 52°
2026-04-29 14:05 24.45748 118.00591 2494 ft 130 kts 52°
2026-04-29 14:06 24.46300 118.01369 2324 ft 130 kts 52°
2026-04-29 14:06 24.46860 118.02160 2149 ft 130 kts 52°
2026-04-29 14:06 24.47414 118.02941 1976 ft 129 kts 52°
2026-04-29 14:06 24.47969 118.03725 1807 ft 129 kts 52°
2026-04-29 14:07 24.48515 118.04491 1642 ft 129 kts 51°
2026-04-29 14:07 24.49069 118.05269 1471 ft 128 kts 52°
2026-04-29 14:07 24.49625 118.06049 1304 ft 128 kts 52°
2026-04-29 14:07 24.50171 118.06815 1135 ft 127 kts 52°
2026-04-29 14:08 24.50717 118.07581 970 ft 127 kts 52°
2026-04-29 14:08 24.51265 118.08349 806 ft 127 kts 52°
2026-04-29 14:08 24.51814 118.09115 640 ft 126 kts 53°
2026-04-29 14:08 24.52352 118.09867 472 ft 126 kts 53°
2026-04-29 14:09 24.52900 118.10636 298 ft 125 kts 54°
2026-04-29 14:09 24.53446 118.11397 97 ft 122 kts 54°
2026-04-29 14:09 24.53900 118.12067 72 ft 73 kts 53°
2026-04-29 14:09 24.54074 118.12294 71 ft 24 kts 49°
2026-04-29 14:10 24.54171 118.12437 71 ft 22 kts 56°
2026-04-29 14:10 24.54256 118.12578 71 ft 21 kts 42°
2026-04-29 14:10 24.54362 118.12695 71 ft 21 kts 51°
2026-04-29 14:10 24.54448 118.12825 71 ft 20 kts 56°
2026-04-29 14:11 24.54497 118.12927 71 ft 8 kts 72°
2026-04-29 14:11 24.54512 118.12984 71 ft 6 kts 76°
2026-04-29 14:11 24.54522 118.13035 71 ft 7 kts 79°
2026-04-29 14:11 24.54533 118.13097 71 ft 8 kts 79°
2026-04-29 14:12 24.54544 118.13169 71 ft 10 kts 81°
2026-04-29 14:12 24.54558 118.13249 71 ft 11 kts 70°
2026-04-29 14:12 24.54602 118.13324 71 ft 12 kts 51°
2026-04-29 14:12 24.54655 118.13399 71 ft 13 kts 54°
2026-04-29 14:13 24.54712 118.13483 71 ft 13 kts 51°
2026-04-29 14:13 24.54776 118.13566 71 ft 14 kts 51°
2026-04-29 14:13 24.54840 118.13656 71 ft 15 kts 51°
2026-04-29 14:13 24.54862 118.13745 71 ft 12 kts 127°
2026-04-29 14:14 24.54788 118.13811 71 ft 13 kts 140°
2026-04-29 14:14 24.54713 118.13872 71 ft 10 kts 127°
2026-04-29 14:14 24.54734 118.13917 71 ft 5 kts 52°
2026-04-29 14:14 24.54753 118.13946 71 ft 0 kts 52°